FW5778 Weather Reports


Display with metric or nautical units.
time (UTC)temp
F
wind
direction
speed
MPH
gust
MPH
rain 1hr
in
rain 24hr
in
rain mn
in
humidity
%
barometer
mb
20220523153101 50 328 3.0 10.0 0.00 0.00 0.00 52 1021.1
20220523152556 50 11 2.0 9.0 0.00 0.00 0.00 53 1021.0
20220523152057 50 30 3.0 9.0 0.00 0.00 0.00 52 1021.1
20220523151557 49 8 3.0 7.0 0.00 0.00 0.00 54 1021.1
20220523151056 49 26 4.0 7.0 0.00 0.00 0.00 53 1021.0
20220523150553 49 304 3.0 7.0 0.00 0.00 0.00 54 1020.9
20220523150054 49 27 3.0 6.0 0.00 0.00 0.00 54 1020.9
20220523145553 48 12 4.0 8.0 0.00 0.00 0.00 55 1020.9
20220523145051 48 15 3.0 9.0 0.00 0.00 0.00 56 1020.8
20220523144553 48 25 3.0 9.0 0.00 0.00 0.00 57 1020.8
20220523144052 48 36 4.0 7.0 0.00 0.00 0.00 56 1020.9
20220523143549 48 313 3.0 7.0 0.00 0.00 0.00 57 1020.9
20220523143100 48 6 3.0 7.0 0.00 0.00 0.00 58 1021.0
20220523142549 47 45 2.0 5.0 0.00 0.00 0.00 59 1020.9
20220523142046 47 60 2.0 5.0 0.00 0.00 0.00 61 1021.0
20220523141558 46 45 2.0 6.0 0.00 0.00 0.00 61 1021.0
20220523141048 46 28 3.0 6.0 0.00 0.00 0.00 61 1021.0
20220523140547 46 7 2.0 5.0 0.00 0.00 0.00 62 1021.0
20220523140048 45 15 2.0 4.0 0.00 0.00 0.00 63 1021.0
20220523135550 45 46 2.0 5.0 0.00 0.00 0.00 64 1021.1
20220523135049 44 20 2.0 6.0 0.00 0.00 0.00 64 1021.0
20220523134544 44 32 3.0 5.0 0.00 0.00 0.00 64 1021.1
20220523134045 44 27 3.0 7.0 0.00 0.00 0.00 64 1021.1
20220523133544 44 307 2.0 6.0 0.00 0.00 0.00 65 1021.0
20220523133044 44 34 2.0 6.0 0.00 0.00 0.00 66 1021.0
20220523132546 44 13 3.0 6.0 0.00 0.00 0.00 66 1021.0
20220523132044 43 21 1.0 4.0 0.00 0.00 0.00 67 1021.0
20220523131553 43 319 1.0 4.0 0.00 0.00 0.00 68 1021.0
20220523131051 42 18 2.0 4.0 0.00 0.00 0.00 68 1021.0
20220523130543 42 331 0.0 4.0 0.00 0.00 0.00 68 1020.9
20220523130043 42 4 1.0 4.0 0.00 0.00 0.00 68 1021.0
20220523125542 42 36 1.0 3.0 0.00 0.00 0.00 68 1021.0
20220523125044 42 37 1.0 3.0 0.00 0.00 0.00 68 1021.0
20220523124541 42 34 0.0 3.0 0.00 0.00 0.00 69 1021.0
20220523124042 41 337 0.0 0.0 0.00 0.00 0.00 69 1021.0
20220523123543 41 110 0.0 0.0 0.00 0.00 0.00 69 1020.9
20220523123047 41 110 0.0 0.0 0.00 0.00 0.00 70 1020.9
20220523122545 41 110 0.0 0.0 0.00 0.00 0.00 70 1020.9
20220523122045 41 108 0.0 0.0 0.00 0.00 0.00 70 1020.8
20220523121557 41 84 0.0 0.0 0.00 0.00 0.00 69 1020.8
20220523121042 41 2 0.0 3.0 0.00 0.00 0.00 69 1020.7
20220523120540 41 318 0.0 5.0 0.00 0.00 0.00 69 1020.7
20220523120049 41 14 1.0 5.0 0.00 0.00 0.00 69 1020.7
20220523115540 41 6 1.0 5.0 0.00 0.00 0.00 69 1020.7
20220523115040 41 335 2.0 6.0 0.00 0.00 0.00 69 1020.8
20220523114539 41 4 1.0 6.0 0.00 0.00 0.00 68 1020.8
20220523114040 41 316 1.0 6.0 0.00 0.00 0.00 68 1020.8
20220523113538 41 311 3.0 7.0 0.00 0.00 0.00 68 1020.7
20220523113046 41 328 2.0 7.0 0.00 0.00 0.00 67 1020.7
20220523112537 41 323 4.0 7.0 0.00 0.00 0.00 67 1020.8
20220523112037 41 332 1.0 8.0 0.00 0.00 0.00 67 1020.7
20220523111546 41 6 2.0 6.0 0.00 0.00 0.00 67 1020.7
20220523111036 41 329 2.0 6.0 0.00 0.00 0.00 67 1020.7
20220523110535 41 312 1.0 6.0 0.00 0.00 0.00 67 1020.7
20220523110036 41 10 2.0 5.0 0.00 0.00 0.00 67 1020.7
20220523105536 41 331 0.0 2.0 0.00 0.00 0.00 67 1020.9
20220523105034 41 347 0.0 4.0 0.00 0.00 0.00 67 1020.9
20220523104535 41 326 1.0 5.0 0.00 0.00 0.00 67 1020.8
20220523104032 40 332 2.0 5.0 0.00 0.00 0.00 68 1020.8
20220523103532 40 356 1.0 4.0 0.00 0.00 0.00 66 1020.8
20220523103031 40 49 1.0 3.0 0.00 0.00 0.00 66 1020.8
20220523102530 41 30 0.0 2.0 0.00 0.00 0.00 65 1020.8
20220523102030 41 31 0.0 3.0 0.00 0.00 0.00 64 1020.8
20220523101530 41 8 1.0 3.0 0.00 0.00 0.00 64 1020.8
20220523101028 41 14 0.0 2.0 0.00 0.00 0.00 63 1020.8
20220523100528 41 354 0.0 3.0 0.00 0.00 0.00 63 1020.8
20220523100029 41 359 0.0 3.0 0.00 0.00 0.00 63 1020.7
20220523095526 42 347 0.0 3.0 0.00 0.00 0.00 63 1020.7
20220523095024 42 325 1.0 3.0 0.00 0.00 0.00 62 1020.7
20220523094523 42 319 1.0 3.0 0.00 0.00 0.00 63 1020.7
20220523094022 42 318 1.0 3.0 0.00 0.00 0.00 63 1020.7
20220523093521 42 333 1.0 3.0 0.00 0.00 0.00 62 1020.7
20220523093019 42 328 1.0 3.0 0.00 0.00 0.00 62 1020.8
20220523092519 43 333 0.0 2.0 0.00 0.00 0.00 61 1020.9
20220523092017 43 313 0.0 2.0 0.00 0.00 0.00 61 1020.9
20220523091522 43 324 0.0 2.0 0.00 0.00 0.00 61 1021.0
20220523091017 43 8 0.0 4.0 0.00 0.00 0.00 60 1021.0
20220523090516 43 338 0.0 5.0 0.00 0.00 0.00 60 1021.0
20220523090016 43 340 2.0 5.0 0.00 0.00 0.00 60 1021.0
20220523085519 43 309 0.0 4.0 0.00 0.00 0.00 60 1021.0
20220523085022 43 322 0.0 4.0 0.00 0.00 0.00 60 1021.0
20220523084515 43 319 0.0 3.0 0.00 0.00 0.00 59 1021.1
20220523084013 43 318 0.0 3.0 0.00 0.00 0.00 59 1021.2
20220523083514 43 316 0.0 2.0 0.00 0.00 0.00 59 1021.3
20220523083024 44 297 0.0 5.0 0.00 0.00 0.00 58 1021.5
20220523082513 44 316 2.0 5.0 0.00 0.00 0.00 58 1021.5
20220523082014 44 332 2.0 5.0 0.00 0.00 0.00 58 1021.5
20220523081512 44 328 1.0 4.0 0.00 0.00 0.00 58 1021.4
20220523081013 44 292 0.0 4.0 0.00 0.00 0.00 58 1021.5
20220523080513 44 295 1.0 4.0 0.00 0.00 0.00 58 1021.5
20220523080024 44 311 1.0 4.0 0.00 0.00 0.00 59 1021.5
20220523075511 44 312 1.0 4.0 0.00 0.00 0.00 60 1021.4
20220523075011 43 302 1.0 4.0 0.00 0.00 0.00 60 1021.4
20220523074514 43 281 0.0 5.0 0.00 0.00 0.00 60 1021.3
20220523074013 43 305 1.0 6.0 0.00 0.00 0.00 60 1021.3
20220523073510 43 254 3.0 6.0 0.00 0.00 0.00 60 1021.3
20220523073008 43 283 2.0 5.0 0.00 0.00 0.00 60 1021.4
20220523072507 43 288 2.0 5.0 0.00 0.00 0.00 59 1021.4
20220523072007 43 298 2.0 4.0 0.00 0.00 0.00 58 1021.4
20220523071508 44 288 1.0 3.0 0.00 0.00 0.00 58 1021.5
20220523071005 44 300 0.0 3.0 0.00 0.00 0.00 57 1021.6
20220523070506 44 288 1.0 4.0 0.00 0.00 0.00 57 1021.5
20220523070004 44 293 1.0 4.0 0.00 0.00 0.00 56 1021.4
20220523065503 45 276 0.0 4.0 0.00 0.00 0.00 55 1021.5
20220523065100 45 288 0.0 4.0 0.00 0.00 0.00 55 1021.5
20220523064559 45 333 0.0 3.0 0.00 0.00 0.00 54 1021.5
20220523064058 45 286 1.0 4.0 0.00 0.00 0.00 53 1021.6
20220523063557 45 308 0.0 4.0 0.00 0.00 0.00 52 1021.6
20220523063057 46 357 0.0 1.0 0.00 0.00 0.00 51 1021.5
20220523062600 46 356 0.0 4.0 0.00 0.00 0.00 50 1021.6
20220523062058 46 26 1.0 6.0 0.00 0.00 0.00 50 1021.5
20220523061554 46 352 1.0 7.0 0.00 0.00 0.00 49 1021.4
20220523061055 46 311 1.0 7.0 0.00 0.00 0.00 48 1021.3
20220523060551 47 321 2.0 6.0 0.00 0.00 0.00 48 1021.3
20220523060049 47 334 3.0 8.0 0.00 0.00 0.00 48 1021.3
20220523055549 47 321 3.0 8.0 0.00 0.00 0.00 48 1021.3
20220523055052 47 326 3.0 8.0 0.00 0.00 0.00 48 1021.3
20220523054550 47 316 2.0 7.0 0.00 0.00 0.00 49 1021.3
20220523054048 48 333 3.0 8.0 0.00 0.00 0.00 48 1021.3
20220523053547 48 307 3.0 8.0 0.00 0.00 0.00 48 1021.3
20220523053048 48 328 2.0 8.0 0.00 0.00 0.00 47 1021.3
20220523052548 49 10 3.0 8.0 0.00 0.00 0.00 46 1021.4
20220523052050 49 315 3.0 8.0 0.00 0.00 0.00 45 1021.4
20220523051557 49 324 1.0 9.0 0.00 0.00 0.00 44 1021.4
20220523051046 49 10 2.0 9.0 0.00 0.00 0.00 44 1021.4
20220523050549 50 336 3.0 7.0 0.00 0.00 0.00 43 1021.5
20220523050046 50 340 2.0 7.0 0.00 0.00 0.00 42 1021.5
20220523045549 50 22 3.0 9.0 0.00 0.00 0.00 42 1021.5
20220523045045 50 354 2.0 11.0 0.00 0.00 0.00 42 1021.5
20220523044546 50 24 4.0 11.0 0.00 0.00 0.00 42 1021.5
20220523044044 50 319 6.0 12.0 0.00 0.00 0.00 43 1021.4
20220523043543 51 331 5.0 12.0 0.00 0.00 0.00 44 1021.4
20220523043044 51 359 5.0 10.0 0.00 0.00 0.00 45 1021.3
20220523042548 51 337 2.0 9.0 0.00 0.00 0.00 45 1021.2
20220523042042 51 335 5.0 10.0 0.00 0.00 0.00 44 1021.1
20220523041541 51 297 6.0 10.0 0.00 0.00 0.00 44 1021.1
20220523041041 51 327 5.0 10.0 0.00 0.00 0.00 44 1021.0
20220523040541 51 325 4.0 10.0 0.00 0.00 0.00 43 1020.9
20220523040039 52 338 3.0 12.0 0.00 0.00 0.00 43 1020.8
20220523035540 52 316 7.0 13.0 0.00 0.00 0.00 44 1020.8
20220523035045 52 342 7.0 13.0 0.00 0.00 0.00 44 1020.6
20220523034540 52 317 6.0 14.0 0.00 0.00 0.00 44 1020.5
20220523034036 52 23 8.0 14.0 0.00 0.00 0.00 45 1020.5
20220523033538 52 311 5.0 11.0 0.00 0.00 0.00 45 1020.5
20220523033035 52 345 5.0 11.0 0.00 0.00 0.00 45 1020.4
20220523032537 52 341 3.0 10.0 0.00 0.00 0.00 44 1020.3
20220523032033 52 2 3.0 10.0 0.00 0.00 0.00 44 1020.2
20220523031536 52 8 3.0 10.0 0.00 0.00 0.00 43 1020.0
20220523031033 52 13 4.0 10.0 0.00 0.00 0.00 43 1020.1
20220523030633 52 7 4.0 9.0 0.00 0.00 0.00 43 1020.1
20220523030032 52 41 5.0 13.0 0.00 0.00 0.00 43 1020.0
20220523025532 52 56 5.0 11.0 0.00 0.00 0.00 43 1020.0
20220523025030 52 15 5.0 14.0 0.00 0.00 0.00 43 1019.9
20220523024530 52 354 6.0 14.0 0.00 0.00 0.00 43 1019.9
20220523024030 52 44 8.0 21.0 0.00 0.00 0.00 43 1019.9
20220523023529 52 323 7.0 21.0 0.00 0.00 0.00 42 1019.9
20220523023028 53 7 8.0 19.0 0.00 0.00 0.00 43 1019.9
20220523022528 53 7 5.0 14.0 0.00 0.00 0.00 43 1019.7
20220523022032 53 12 6.0 14.0 0.00 0.00 0.00 42 1019.7
20220523021530 53 34 7.0 16.0 0.00 0.00 0.00 42 1019.7
20220523021027 53 337 8.0 16.0 0.00 0.00 0.00 41 1019.6
20220523020527 53 8 8.0 21.0 0.00 0.00 0.00 41 1019.5
20220523020031 53 4 10.0 23.0 0.00 0.00 0.00 41 1019.4
20220523015529 53 42 12.0 23.0 0.00 0.00 0.00 40 1019.4
20220523015026 54 52 10.0 22.0 0.00 0.00 0.00 40 1019.2
20220523014529 54 25 11.0 26.0 0.00 0.00 0.00 40 1019.0
20220523014028 55 17 13.0 26.0 0.00 0.00 0.00 39 1018.9
20220523013526 55 1 11.0 24.0 0.00 0.00 0.00 40 1018.7
20220523013037 56 328 13.0 24.0 0.00 0.00 0.00 40 1018.6
20220523012526 56 337 11.0 26.0 0.00 0.00 0.00 40 1018.2
20220523012025 56 13 13.0 29.0 0.00 0.00 0.00 40 1017.9
20220523011525 56 342 14.0 31.0 0.00 0.00 0.00 40 1017.9
20220523011025 56 326 17.0 31.0 0.00 0.00 0.00 39 1017.8
20220523010524 56 4 14.0 29.0 0.00 0.00 0.00 40 1017.8
20220523010032 57 319 17.0 29.0 0.00 0.00 0.00 44 1017.6
20220523005524 57 307 12.0 33.0 0.00 0.00 0.00 41 1017.3
20220523005024 57 328 18.0 33.0 0.00 0.00 0.00 42 1017.2
20220523004523 57 300 21.0 31.0 0.00 0.00 0.00 41 1017.0
20220523004023 58 314 18.0 35.0 0.00 0.00 0.00 40 1017.0
20220523003523 58 277 16.0 35.0 0.00 0.00 0.00 39 1016.8
20220523003025 59 286 11.0 30.0 0.00 0.00 0.00 38 1016.7
20220523002522 60 309 13.0 30.0 0.00 0.00 0.00 38 1016.7
20220523002022 61 305 16.0 27.0 0.00 0.00 0.00 37 1016.6
20220523001521 62 287 12.0 27.0 0.00 0.00 0.00 33 1016.6
20220523001021 62 12 9.0 29.0 0.00 0.00 0.00 31 1016.5
20220523000521 62 309 16.0 29.0 0.00 0.00 0.00 30 1016.3
20220523000021 63 352 12.0 25.0 0.00 0.00 0.00 26 1016.1
20220522235521 63 307 13.0 25.0 0.00 0.00 0.00 22 1016.0
20220522235022 64 335 15.0 25.0 0.00 0.00 0.00 21 1015.8
20220522234519 65 315 10.0 25.0 0.00 0.00 0.00 20 1015.8
20220522234022 65 319 12.0 25.0 0.00 0.00 0.00 17 1015.7
20220522233521 66 272 10.0 22.0 0.00 0.00 0.00 18 1015.5
20220522233019 65 281 8.0 18.0 0.00 0.00 0.00 17 1015.3
20220522232521 65 282 11.0 20.0 0.00 0.00 0.00 17 1015.3
20220522232017 66 283 8.0 18.0 0.00 0.00 0.00 17 1015.2
20220522231517 65 278 8.0 18.0 0.00 0.00 0.00 18 1015.3
20220522231016 65 35 6.0 10.0 0.00 0.00 0.00 18 1015.3
20220522230516 65 30 4.0 14.0 0.00 0.00 0.00 18 1015.4
20220522230016 64 344 7.0 14.0 0.00 0.00 0.00 18 1015.5
20220522225523 65 326 4.0 10.0 0.00 0.00 0.00 19 1015.4
20220522225015 64 348 4.0 13.0 0.00 0.00 0.00 18 1015.4
20220522224522 65 23 7.0 14.0 0.00 0.00 0.00 19 1015.4
20220522224014 65 325 4.0 14.0 0.00 0.00 0.00 19 1015.4
20220522223514 65 50 5.0 13.0 0.00 0.00 0.00 19 1015.3
20220522223024 65 58 4.0 13.0 0.00 0.00 0.00 18 1015.5
20220522222516 65 29 2.0 13.0 0.00 0.00 0.00 18 1015.5
20220522222013 65 60 3.0 12.0 0.00 0.00 0.00 18 1015.5
20220522221532 65 58 6.0 12.0 0.00 0.00 0.00 17 1015.7
20220522221016 65 319 3.0 15.0 0.00 0.00 0.00 17 1015.5
20220522220515 65 39 7.0 15.0 0.00 0.00 0.00 16 1015.7
20220522220012 65 31 4.0 13.0 0.00 0.00 0.00 16 1015.7
20220522215513 65 343 6.0 12.0 0.00 0.00 0.00 16 1015.7
20220522215010 65 295 4.0 11.0 0.00 0.00 0.00 16 1015.7
20220522214510 65 340 4.0 11.0 0.00 0.00 0.00 17 1015.8
20220522214010 65 41 7.0 14.0 0.00 0.00 0.00 15 1015.8
20220522213513 66 51 6.0 14.0 0.00 0.00 0.00 15 1015.9
20220522213009 66 9 5.0 13.0 0.00 0.00 0.00 16 1015.9
20220522212508 65 352 2.0 10.0 0.00 0.00 0.00 15 1016.0
20220522212008 65 323 3.0 13.0 0.00 0.00 0.00 15 1016.0
20220522211510 66 338 7.0 15.0 0.00 0.00 0.00 16 1015.9